Home > Weather > Cincinnati > Past weeks

Flag for USA Past Weather in Cincinnati, Ohio, USA — Yesterday and Last 2 Weeks

Now
74 °F

Clear.


Feels Like: 70 °F
Forecast: 74 / 94 °F
Wind: No wind

Location: Cincinnati Municipal Airport Lunken Field

Current Time: Jul 24, 2016 at 3:08:33 AM

Latest Report: Jul 24, 2016 at 1:53 AM


Visibility: 10 mi

Pressure: 29.97 "Hg

Humidity: 100%

Dew Point: 74 °F

Location of CincinnatiLocation

Past Weather in Cincinnati — Graph

°F

Cincinnati Temperature Yesterday

Maximum temperature yesterday: 92 °F (at 5:53 PM)
Minimum temperature yesterday: 68 °F (at 5:57 AM)
Average temperature yesterday: 80 °F

High & Low Weather Summary for the Past Weeks

 TemperatureHumidityPressure
High92 °F (Jul 23, 5:53 PM)100% (Jul 9, 3:53 AM)30.27 "Hg (Jul 9, 3:53 AM)
Low60 °F (Jul 10, 6:53 AM)45% (Jul 19, 4:53 PM)29.87 "Hg (Jul 14, 4:53 PM)
Average76 °F81%30.05 "Hg
* Reported Jul 9 1:53 AM — Jul 24 1:53 AM, Cincinnati, Weather by CustomWeather, © 2016

Note: Actual official high and low records may vary slightly from our data, if they occured in-between our weather recording intervals... More about our weather records

Advertising

Cincinnati Weather History for the Previous 24 Hours

Scroll right to see more
 ConditionsComfort  
Time TempWeatherWind HumidityBarometerVisibility
1:53 AM
Sun, Jul 24
74 °FClear.No wind100%29.97 "Hg10 mi
12:53 AM75 °FClear.No wind96%29.97 "Hg10 mi
11:53 PM
Sat, Jul 23
76 °FClear.No wind97%29.98 "Hg10 mi
10:53 PM78 °FPassing clouds.No wind90%29.98 "Hg10 mi
9:53 PM79 °FScattered clouds.3 mph88%29.96 "Hg10 mi
8:53 PM82 °FPartly sunny.No wind82%29.93 "Hg10 mi
7:53 PM89 °FPassing clouds.3 mph57%29.92 "Hg10 mi
6:53 PM90 °FPassing clouds.6 mph54%29.92 "Hg10 mi
5:53 PM92 °FScattered clouds.6 mph51%29.93 "Hg10 mi
4:53 PM89 °FScattered clouds.3 mph59%29.95 "Hg10 mi
3:53 PM90 °FScattered clouds.No wind57%29.96 "Hg10 mi
2:53 PM89 °FPassing clouds.8 mph61%29.98 "Hg10 mi
1:53 PM90 °FScattered clouds.6 mph59%29.98 "Hg10 mi
12:53 PM88 °FScattered clouds.9 mph65%29.99 "Hg10 mi
11:53 AM86 °FSunny.6 mph72%30.00 "Hg10 mi
10:53 AM82 °FPassing clouds.5 mph82%30.01 "Hg9 mi
9:53 AM78 °FFog.3 mph90%30.03 "Hg6 mi
8:53 AM75 °FOvercast.6 mph96%30.02 "Hg7 mi
7:53 AM72 °FFog.3 mph100%30.01 "Hg5 mi
6:53 AM68 °FFog.No wind100%30.01 "Hg5 mi
5:57 AM68 °FFog.3 mph100%30.01 "Hg2 mi
4:53 AM69 °FFog.No wind100%30.00 "Hg1 mi
3:53 AM71 °FFog.No wind100%30.01 "Hg5 mi
Weather by CustomWeather, © 2016

See weather overviewHow to use our weather pages